Regional Weather Roundup
Issued by NWS

Home | Current Version | Previous Version | Graphics & Text | Print | Product List | Glossary On
Versions: 1 2 3 4 5 6 7 8 9 10 11 12 13 14 15 16 17 18 19 20 21 22 23 24 25 26 27 28 29 30 31 32 33 34 35 36 37 38 39 40 41 42 43 44 45 46 47 48 49 50
000
ASUS45 KPSR 191700
RWRAZ

PRELIMINARY ARIZONA REGIONAL HOURLY WEATHER ROUNDUP
NATIONAL WEATHER SERVICE PHOENIX AZ
1000 AM MST FRI SEP 19 2014

NOTE: FAIR INDICATES FEW OR NO CLOUDS BELOW 12,000 FEET WITH NO
SIGNIFICANT WEATHER AND/OR OBSTRUCTIONS TO VISIBILITY.

AZZ001>003-036-191800-
NORTHWEST ARIZONA

CITY           SKY/WX    TMP DP  RH WIND       PRES   REMARKS
KINGMAN        SUNNY     85  41  21 SW6       29.98R
$$

AZZ004>008-015-016-018-191800-
NORTH CENTRAL ARIZONA

CITY           SKY/WX    TMP DP  RH WIND       PRES   REMARKS
GRAND CANYON   MOSUNNY   70  54  56 SE3       30.20R
PRESCOTT       MOSUNNY   76  55  48 CALM      30.10S
FLAGSTAFF      PTSUNNY   67  54  63 W3        30.22R
PAYSON         PTSUNNY   73  63  68 SW8       30.12S
PAGE           MOSUNNY   83  48  29 VRB6      30.01S
$$

AZZ009>014-017-191800-
NORTHEAST ARIZONA

CITY           SKY/WX    TMP DP  RH WIND       PRES   REMARKS
WINSLOW        NOT AVBL
SAINT JOHNS    SUNNY     71  57  61 CALM      30.12S
SHOW LOW       MOSUNNY   66  55  68 CALM      30.19S
$$

AZZ023-191800-
GREATER PHOENIX AREA

CITY           SKY/WX    TMP DP  RH WIND       PRES   REMARKS
PHOENIX        MOSUNNY   88  68  51 CALM      29.84R
GLENDALE       MOSUNNY   86  70  58 S5        29.87R
DEER VALLEY    SUNNY     85  69  58 CALM      29.86S
SCOTTSDALE     SUNNY     86  70  58 CALM      29.88S
MESA-GATEWAY   PTSUNNY   86  72  62 S5        29.89R
CHANDLER       PTSUNNY   86  72  62 CALM      29.86R
$$

AZZ027-028-191800-
SOUTHWEST MARICOPA COUNTY AND PINAL COUNTY

CITY           SKY/WX    TMP DP  RH WIND       PRES   REMARKS
CASA GRANDE    MOSUNNY   84  70  61 SE6       29.88S
GILA BEND      MOSUNNY   88  68  51 W5        29.86R
$$

AZZ503-504-507>509-191800-
SOUTHEAST ARIZONA

CITY           SKY/WX    TMP DP  RH WIND       PRES   REMARKS
TUCSON         CLOUDY    80  69  69 CALM      29.97S
DAVIS-MONTHAN  MOSUNNY   78  68  71 CALM      29.95S
RYAN FIELD       N/A     81  70  69 CALM      29.96R
NOGALES        PTSUNNY   75  66  73 VRB5      30.03S
SIERRA VISTA   PTSUNNY   73  63  68 CALM      30.08S
SAFFORD        MOSUNNY   76  65  68 SW3       29.97F
$$

AZZ020-021-025-026-031-191800-
SOUTHWEST ARIZONA

CITY           SKY/WX    TMP DP  RH WIND       PRES   REMARKS
YUMA           NOT AVBL
$$

CAZ031-033-041-043-047-048-061-191800-
SOUTHERN CALIFORNIA

CITY           SKY/WX    TMP DP  RH WIND       PRES   REMARKS
DOWNTOWN L.A.  CLOUDY    73  62  68 CALM      29.91S
L.A. AIRPORT   PTSUNNY   72  61  68 S5        29.92S
SAN DIEGO      CLOUDY    73  63  70 NW9       29.93S
BURBANK        CLOUDY    71  59  65 SE9       29.91F
ONTARIO        PTSUNNY   73  61  65 S7        29.93S
RIVERSIDE      CLOUDY    71  61  70 CALM      29.93S
PALM SPRINGS   SUNNY     86  57  37 CALM      29.83R
EL CENTRO NAS  MOSUNNY   89  55  31 W10       29.79R
IMPERIAL       SUNNY     88  58  36 W10       29.79R
BLYTHE         SUNNY     85  61  44 VRB3      29.81R
$$

NVZ020-UTZ003-191800-
SOUTHERN NEVADA-UTAH

CITY           SKY/WX    TMP DP  RH WIND       PRES   REMARKS
LAS VEGAS      NOT AVBL
SALT LAKE CITY MOSUNNY   74  55  51 NW6       30.06R
$$

NMZ009-TXZ055-191800-
NEW MEXICO-WEST TEXAS

CITY           SKY/WX    TMP DP  RH WIND       PRES   REMARKS
ALBUQUERQUE    PTSUNNY   74  55  51 CALM      30.11F
EL PASO        PTSUNNY   74  64  71 W7        30.01F
$$


........................KEY........................
SKY/WX - SKY CONDITION/WEATHER
TMP    - TEMPERATURE IN FAHRENHEIT
DP     - DEW POINT IN FAHRENHEIT
RH     - RELATIVE HUMIDITY IN PERCENT
WIND   - DIRECTION AND SPEED IN MILES PER HOUR (MPH)
VRB    - VARIABLE WIND DIRECTION
PRES   - MEAN SEA LEVEL PRESSURE IN INCHES OF MERCURY
         F - FALLING PRESSURE   R - RISING PRESSURE
         S - STEADY PRESSURE
VSB    - VISIBILITY IN MILES
HX     - HEAT INDEX IN FAHRENHEIT
WCI    - WIND CHILL INDEX IN FAHRENHEIT
TC     - TEMPERATURE IN CELSIUS WHICH IS ALSO KNOWN AS
         TEMPERATURE IN CENTIGRADE
AFB    - AIR FORCE BASE
         LUKE AFB IS LUKE AIR FORCE BASE
         DAVIS-MONTHAN IS DAVIS-MONTHAN AIR FORCE BASE
NAS    - NAVAL AIR STATION
         EL CENTRO NAS IS EL CENTRO NAVAL AIR STATION
N/A    - NOT AVAILABLE



USA.gov is the U.S. government's official web portal to all federal, state and local government web resources and services.